Weather History for Zapata, TX

Change the Weather History Date:

Friday, February 22, 2013

  Actual Average (KLRD) Record (KLRD)
Temperature  
Mean Temperature 66 °F 63 °F  
Max Temperature 81 °F 74 °F 98 °F (1996)
Min Temperature 52 °F 52 °F 28 °F (1939)
Degree Days  
Heating Degree Days 0 5  
Month to date heating degree days 139  
Since 1 July heating degree days 818  
Cooling Degree Days 2 2  
Month to date cooling degree days 40  
Year to date cooling degree days 68  
Growing Degree Days 16 (Base 50)    
Moisture  
Dew Point 38 °F    
Average Humidity 36    
Maximum Humidity 53    
Minimum Humidity 22    
Precipitation  
Precipitation 0.00 in 0.03 in 0.73 in (1958)
Month to date precipitation 0.72  
Year to date precipitation 1.62  
Sea Level Pressure  
Sea Level Pressure 29.85 in    
Wind  
Wind Speed 6 mph (NE)    
Max Wind Speed 14 mph    
Max Gust Speed 20 mph    
Visibility 10 miles    
Events      
T = Trace of Precipitation, MM = Missing Value Source: NWS Daily Summary

Daily Weather History Graph

Daily Weather History Graph

Search for Another Location

Airport:

Trip Planner

Search our weather history database for the weather conditions in past years. The results will help you decide how hot, cold, wet, or windy it might be!

Date:

Astronomy

Feb. 22, 2013 Rise Set
Actual Time 7:07 AM CST 6:33 PM CST
Civil Twilight 6:43 AM CST 6:57 PM CST
Nautical Twilight 6:16 AM CST 7:24 PM CST
Astronomical Twilight 5:49 AM CST 7:51 PM CST
Moon 3:56 PM CST (2/22) 4:42 AM CST (2/22)
Length of Visible Light 12h 13m
Length of Day
11h 26m
Waxing Gibbous, 90% of the Moon is Illuminated
Feb 22
Waxing Gibbous
Feb 25
Full
Mar 4
Last Quarter
Mar 11
New
Mar 19
First Quarter

Hourly Weather History & Observations

Time (CST) Temp. Dew Point Humidity Pressure Visibility Wind Dir Wind Speed Gust Speed Precip Events Conditions
12:15 AM 54.5 °F 36.7 °F 51% 29.83 in 10.0 mi NNW 3.5 mph - N/A   Clear
12:35 AM 53.6 °F 36.5 °F 52% 29.84 in 10.0 mi NW 4.6 mph - N/A   Clear
12:55 AM 55.6 °F 35.2 °F 46% 29.85 in 10.0 mi WNW 4.6 mph - N/A   Clear
1:15 AM 56.1 °F 35.6 °F 46% 29.85 in 10.0 mi Calm Calm - N/A   Clear
1:35 AM 54.9 °F 36.0 °F 49% 29.85 in 10.0 mi NNW 3.5 mph - N/A   Clear
1:55 AM 52.9 °F 36.0 °F 53% 29.85 in 10.0 mi NW 3.5 mph - N/A   Clear
2:15 AM 53.8 °F 35.4 °F 50% 29.84 in 10.0 mi NNW 3.5 mph - N/A   Clear
2:35 AM 53.8 °F 35.1 °F 49% 29.83 in 10.0 mi NNW 3.5 mph - N/A   Clear
2:55 AM 54.7 °F 35.2 °F 48% 29.82 in 10.0 mi NNW 4.6 mph - N/A   Clear
3:15 AM 57.7 °F 32.2 °F 38% 29.81 in 10.0 mi North 8.1 mph - N/A   Clear
3:35 AM 57.7 °F 32.2 °F 38% 29.81 in 10.0 mi North 6.9 mph - N/A   Clear
3:55 AM 58.1 °F 34.0 °F 40% 29.80 in 10.0 mi North 4.6 mph - N/A   Clear
4:15 AM 58.5 °F 35.6 °F 42% 29.79 in 10.0 mi NNW 4.6 mph - N/A   Clear
4:35 AM 59.4 °F 36.5 °F 43% 29.80 in 10.0 mi North 5.8 mph - N/A   Clear
4:55 AM 59.0 °F 36.9 °F 44% 29.80 in 10.0 mi NNW 4.6 mph - N/A   Clear
5:15 AM 58.3 °F 36.7 °F 45% 29.81 in 10.0 mi NNW 3.5 mph - N/A   Clear
5:35 AM 58.3 °F 35.6 °F 43% 29.82 in 10.0 mi NNW 4.6 mph - N/A   Scattered Clouds
5:55 AM 58.5 °F 36.3 °F 44% 29.83 in 10.0 mi NNW 4.6 mph - N/A   Scattered Clouds
6:15 AM 59.0 °F 36.9 °F 44% 29.84 in 10.0 mi NNW 5.8 mph - N/A   Mostly Cloudy
6:35 AM 59.5 °F 37.4 °F 44% 29.85 in 10.0 mi NNW 4.6 mph - N/A   Overcast
6:55 AM 60.4 °F 37.6 °F 43% 29.86 in 10.0 mi NNW 5.8 mph - N/A   Overcast
7:15 AM 60.8 °F 37.6 °F 42% 29.86 in 10.0 mi NNW 5.8 mph - N/A   Overcast
7:35 AM 61.2 °F 38.3 °F 43% 29.88 in 10.0 mi NNW 3.5 mph - N/A   Overcast
7:55 AM 61.9 °F 38.5 °F 42% 29.89 in 10.0 mi NNW 4.6 mph - N/A   Overcast
8:15 AM 62.1 °F 39.2 °F 43% 29.90 in 10.0 mi NNW 5.8 mph - N/A   Scattered Clouds
8:35 AM 62.6 °F 39.2 °F 42% 29.91 in 10.0 mi NNW 5.8 mph - N/A   Clear
8:55 AM 63.7 °F 39.4 °F 41% 29.91 in 10.0 mi North 4.6 mph - N/A   Clear
9:15 AM 65.1 °F 41.0 °F 41% 29.92 in 10.0 mi NNE 6.9 mph - N/A   Clear
9:35 AM 66.9 °F 41.0 °F 39% 29.93 in 10.0 mi NE 6.9 mph - N/A   Mostly Cloudy
9:55 AM 68.7 °F 39.4 °F 34% 29.92 in 10.0 mi NE 12.7 mph - N/A   Scattered Clouds
10:15 AM 70.0 °F 38.1 °F 31% 29.92 in 10.0 mi NE 9.2 mph - N/A   Scattered Clouds
10:35 AM 71.2 °F 34.3 °F 26% 29.92 in 10.0 mi ENE 9.2 mph - N/A   Mostly Cloudy
10:55 AM 72.1 °F 33.4 °F 24% 29.92 in 10.0 mi NE 8.1 mph 17.3 mph N/A   Overcast
11:15 AM 73.2 °F 36.1 °F 26% 29.91 in 10.0 mi East 9.2 mph 19.6 mph N/A   Overcast
11:35 AM 73.6 °F 36.7 °F 26% 29.91 in 10.0 mi ENE 6.9 mph 17.3 mph N/A   Overcast
11:55 AM 74.3 °F 36.0 °F 25% 29.90 in 10.0 mi NE 10.4 mph - N/A   Overcast
12:15 PM 75.7 °F 35.6 °F 23% 29.90 in 10.0 mi East 12.7 mph - N/A   Overcast
12:35 PM 76.1 °F 35.1 °F 23% 29.89 in 10.0 mi ENE 10.4 mph - N/A   Mostly Cloudy
12:55 PM 76.1 °F 36.3 °F 24% 29.87 in 10.0 mi East 8.1 mph - N/A   Mostly Cloudy
1:15 PM 76.1 °F 37.2 °F 24% 29.87 in 10.0 mi East 9.2 mph - N/A   Overcast
1:35 PM 76.3 °F 37.4 °F 25% 29.85 in 10.0 mi East 9.2 mph - N/A   Overcast
1:55 PM 77.9 °F 38.8 °F 25% 29.84 in 10.0 mi East 6.9 mph - N/A   Mostly Cloudy
2:15 PM 78.4 °F 39.0 °F 24% 29.83 in 10.0 mi ENE 5.8 mph - N/A   Scattered Clouds
2:35 PM 79.2 °F 39.7 °F 24% 29.82 in 10.0 mi ENE 8.1 mph 17.3 mph N/A   Scattered Clouds
2:55 PM 79.3 °F 38.8 °F 23% 29.80 in 10.0 mi NE 4.6 mph - N/A   Mostly Cloudy
3:15 PM 80.1 °F 39.7 °F 24% 29.80 in 10.0 mi ENE 10.4 mph 16.1 mph N/A   Scattered Clouds
3:35 PM 80.6 °F 40.1 °F 24% 29.79 in 10.0 mi NE 8.1 mph - N/A   Scattered Clouds
3:55 PM 81.5 °F 39.6 °F 22% 29.79 in 10.0 mi East 11.5 mph - N/A   Scattered Clouds
4:15 PM 81.1 °F 40.1 °F 23% 29.79 in 10.0 mi East 10.4 mph - N/A   Clear
4:35 PM 80.8 °F 39.7 °F 23% 29.79 in 10.0 mi East 8.1 mph - N/A   Clear
4:55 PM 80.1 °F 39.7 °F 24% 29.79 in 10.0 mi East 8.1 mph - N/A   Clear
5:15 PM 79.0 °F 38.8 °F 24% 29.79 in 10.0 mi East 12.7 mph 18.4 mph N/A   Clear
5:35 PM 77.5 °F 38.8 °F 25% 29.80 in 10.0 mi East 10.4 mph - N/A   Clear
5:55 PM 76.6 °F 38.3 °F 25% 29.81 in 10.0 mi East 13.8 mph 18.4 mph N/A   Clear
6:15 PM 75.4 °F 38.5 °F 26% 29.82 in 10.0 mi East 10.4 mph - N/A   Clear
6:35 PM 73.8 °F 38.3 °F 28% 29.83 in 10.0 mi East 9.2 mph - N/A   Clear
6:55 PM 72.5 °F 38.5 °F 29% 29.84 in 10.0 mi ENE 8.1 mph - N/A   Clear
7:15 PM 70.9 °F 37.9 °F 30% 29.85 in 10.0 mi ENE 6.9 mph - N/A   Clear
7:35 PM 69.8 °F 37.8 °F 31% 29.85 in 10.0 mi East 6.9 mph - N/A   Clear
7:55 PM 69.3 °F 37.8 °F 32% 29.86 in 10.0 mi East 8.1 mph - N/A   Clear
8:15 PM 68.2 °F 38.3 °F 33% 29.87 in 10.0 mi East 8.1 mph - N/A   Clear
8:35 PM 67.1 °F 38.5 °F 35% 29.88 in 10.0 mi East 8.1 mph - N/A   Clear
8:55 PM 66.2 °F 38.8 °F 37% 29.88 in 10.0 mi East 6.9 mph - N/A   Clear
9:15 PM 65.3 °F 39.2 °F 38% 29.89 in 10.0 mi East 5.8 mph - N/A   Clear
9:35 PM 64.6 °F 39.4 °F 40% 29.89 in 10.0 mi ENE 6.9 mph - N/A   Clear
9:55 PM 64.0 °F 39.6 °F 41% 29.90 in 10.0 mi East 5.8 mph - N/A   Clear
10:15 PM 63.9 °F 40.1 °F 42% 29.90 in 10.0 mi ENE 6.9 mph - N/A   Clear
10:35 PM 64.2 °F 40.5 °F 42% 29.91 in 10.0 mi East 6.9 mph - N/A   Clear
10:55 PM 63.5 °F 40.6 °F 43% 29.91 in 10.0 mi NE 4.6 mph - N/A   Clear
11:15 PM 62.8 °F 41.0 °F 45% 29.91 in 10.0 mi ENE 4.6 mph - N/A   Clear
11:55 PM 62.4 °F 40.8 °F 45% 29.91 in 10.0 mi NE 6.9 mph - N/A   Clear